timestamp,wind_dir_avg,wind_spd_avg,wind_spd_max_dir,wind_spd_gust,battery_voltage,lat,long
2023-12-24 00:04:00+00:00,262.0,4.01,264.0,4.8,12.41,47.59359,-54.27349
2023-12-24 00:14:00+00:00,273.0,4.14,288.0,4.9,12.33,47.59359,-54.27349
2023-12-24 00:24:00+00:00,260.0,4.47,259.0,4.85,12.33,47.59359,-54.27349
2023-12-24 00:34:00+00:00,258.0,5.23,257.0,5.98,12.33,47.59359,-54.27349
2023-12-24 00:44:00+00:00,279.0,6.27,278.0,7.33,12.33,47.59359,-54.27349
2023-12-24 00:54:00+00:00,259.0,6.21,263.0,7.29,12.33,47.59359,-54.27349
2023-12-24 01:04:00+00:00,270.0,5.37,263.0,6.17,12.33,47.59359,-54.27349
2023-12-24 01:14:00+00:00,303.0,6.24,302.0,7.61,12.33,47.59359,-54.27349
2023-12-24 01:24:00+00:00,289.0,6.31,294.0,7.41,12.33,47.59359,-54.27349
2023-12-24 01:34:00+00:00,287.0,5.45,282.0,6.53,12.33,47.59359,-54.27349
2023-12-24 01:44:00+00:00,292.0,7.25,295.0,8.94,12.33,47.59359,-54.27349
2023-12-24 01:54:00+00:00,280.0,9.14,277.0,10.37,12.33,47.59359,-54.27349
2023-12-24 02:04:00+00:00,289.0,7.3,288.0,8.71,12.33,47.59359,-54.27349
2023-12-24 02:14:00+00:00,280.0,6.32,290.0,7.11,12.33,47.59359,-54.27349
2023-12-24 02:24:00+00:00,279.0,5.12,279.0,6.59,12.33,47.59359,-54.27349
2023-12-24 02:34:00+00:00,280.0,5.23,271.0,6.89,12.33,47.59359,-54.27349
2023-12-24 02:44:00+00:00,267.0,4.94,269.0,5.66,12.33,47.59359,-54.27349
2023-12-24 02:54:00+00:00,258.0,4.79,260.0,5.85,12.33,47.59359,-54.27349
2023-12-24 03:04:00+00:00,263.0,6.18,260.0,7.69,12.33,47.59359,-54.27349
2023-12-24 03:14:00+00:00,262.0,5.75,262.0,7.51,12.25,47.59359,-54.27349
2023-12-24 03:24:00+00:00,276.0,4.39,283.0,5.34,12.25,47.59359,-54.27349
2023-12-24 03:34:00+00:00,269.0,5.33,268.0,6.22,12.25,47.59359,-54.27349
2023-12-24 03:44:00+00:00,269.0,6.36,270.0,7.45,12.25,47.59359,-54.27349
2023-12-24 03:54:00+00:00,284.0,5.18,297.0,6.6,12.25,47.59359,-54.27349
2023-12-24 04:04:00+00:00,270.0,6.26,279.0,7.54,12.25,47.59359,-54.27349
2023-12-24 04:14:00+00:00,273.0,7.18,269.0,8.16,12.25,47.59359,-54.27349
2023-12-24 04:24:00+00:00,268.0,7.15,267.0,8.69,12.25,47.59359,-54.27349
2023-12-24 04:34:00+00:00,278.0,5.96,283.0,7.58,12.25,47.59359,-54.27349
2023-12-24 04:44:00+00:00,270.0,7.5,272.0,8.76,12.25,47.59359,-54.27349
2023-12-24 04:54:00+00:00,281.0,8.71,281.0,12.23,12.25,47.59359,-54.27349
2023-12-24 05:04:00+00:00,285.0,7.64,284.0,8.45,12.25,47.59359,-54.27349
2023-12-24 05:14:00+00:00,269.0,6.04,264.0,7.04,12.25,47.59359,-54.27349
2023-12-24 05:24:00+00:00,267.0,6.33,266.0,7.64,12.25,47.59359,-54.27349
2023-12-24 05:34:00+00:00,257.0,5.77,278.0,7.13,12.25,47.59359,-54.27349
2023-12-24 05:44:00+00:00,240.0,4.74,246.0,5.92,12.25,47.59359,-54.27349
2023-12-24 05:54:00+00:00,245.0,5.5,237.0,7.47,12.25,47.59359,-54.27349
2023-12-24 06:04:00+00:00,244.0,6.08,250.0,8.33,12.25,47.59359,-54.27349
2023-12-24 06:14:01+00:00,260.0,5.01,245.0,6.36,12.25,47.59359,-54.27349
2023-12-24 06:24:01+00:00,255.0,6.1,261.0,7.62,12.25,47.59359,-54.27349
2023-12-24 06:34:01+00:00,258.0,6.27,266.0,7.44,12.25,47.59359,-54.27349
2023-12-24 06:44:01+00:00,257.0,6.76,261.0,7.68,12.25,47.59359,-54.27349
2023-12-24 06:54:01+00:00,245.0,6.5,245.0,7.68,12.25,47.59359,-54.27349
2023-12-24 07:04:01+00:00,240.0,6.86,237.0,8.27,12.25,47.59359,-54.27349
2023-12-24 07:14:00+00:00,238.0,6.12,243.0,7.03,12.25,47.59359,-54.27349
2023-12-24 07:24:00+00:00,233.0,7.12,226.0,8.62,12.25,47.59359,-54.27349
2023-12-24 07:34:00+00:00,236.0,7.39,241.0,8.45,12.25,47.59359,-54.27349
2023-12-24 07:44:00+00:00,239.0,7.59,232.0,9.96,12.25,47.59359,-54.27349
2023-12-24 07:54:00+00:00,241.0,8.69,243.0,9.57,12.25,47.59359,-54.27349
2023-12-24 08:04:00+00:00,239.0,7.67,239.0,8.85,12.25,47.59359,-54.27349
2023-12-24 08:14:00+00:00,240.0,9.35,238.0,10.31,12.17,47.59359,-54.27349
2023-12-24 08:24:00+00:00,241.0,8.45,240.0,10.24,12.17,47.59359,-54.27349
2023-12-24 08:34:00+00:00,241.0,9.12,246.0,10.78,12.17,47.59359,-54.27349
2023-12-24 08:44:00+00:00,241.0,8.32,244.0,9.73,12.17,47.59359,-54.27349
2023-12-24 08:54:00+00:00,248.0,9.77,243.0,11.07,12.17,47.59359,-54.27349
2023-12-24 09:04:00+00:00,236.0,8.67,248.0,10.79,12.17,47.59359,-54.27349
2023-12-24 09:14:00+00:00,245.0,9.5,250.0,11.69,12.17,47.59359,-54.27349
2023-12-24 09:24:00+00:00,248.0,9.67,244.0,11.29,12.17,47.59359,-54.27349
2023-12-24 09:34:00+00:00,243.0,10.04,250.0,11.54,12.17,47.59359,-54.27349
2023-12-24 09:44:00+00:00,245.0,10.93,244.0,12.55,12.17,47.59359,-54.27349
2023-12-24 09:54:00+00:00,248.0,12.26,246.0,14.94,12.17,47.59359,-54.27349
2023-12-24 10:04:00+00:00,248.0,11.78,236.0,12.97,12.17,47.59359,-54.27349
2023-12-24 10:14:00+00:00,247.0,10.78,244.0,14.05,12.17,47.59359,-54.27349
2023-12-24 10:24:00+00:00,252.0,11.63,252.0,12.81,12.17,47.59359,-54.27349
2023-12-24 10:34:00+00:00,249.0,10.37,248.0,12.44,12.17,47.59359,-54.27349
2023-12-24 10:44:00+00:00,248.0,11.92,250.0,12.92,12.17,47.59359,-54.27349
2023-12-24 10:54:00+00:00,250.0,10.86,258.0,13.46,12.17,47.59359,-54.27349
2023-12-24 11:04:00+00:00,247.0,11.35,243.0,12.36,12.17,47.59359,-54.27349
2023-12-24 11:14:00+00:00,244.0,9.46,242.0,11.19,12.17,47.59359,-54.27349
2023-12-24 11:24:00+00:00,242.0,9.98,242.0,11.54,12.17,47.59359,-54.27349
2023-12-24 11:34:00+00:00,242.0,11.02,241.0,11.79,12.17,47.59359,-54.27349
2023-12-24 11:44:00+00:00,243.0,9.99,243.0,11.42,12.17,47.59359,-54.27349
2023-12-24 11:54:00+00:00,242.0,12.57,244.0,13.51,12.17,47.59359,-54.27349
2023-12-24 12:04:00+00:00,244.0,11.86,243.0,13.39,12.17,47.59359,-54.27349
2023-12-24 12:14:00+00:00,245.0,10.42,255.0,12.72,12.81,47.59359,-54.27349
2023-12-24 12:24:00+00:00,245.0,10.48,241.0,12.09,12.81,47.59359,-54.27349
2023-12-24 12:34:00+00:00,246.0,10.44,249.0,11.91,12.81,47.59359,-54.27349
2023-12-24 12:44:00+00:00,248.0,9.58,238.0,10.77,12.81,47.59359,-54.27349
2023-12-24 12:54:00+00:00,245.0,11.64,239.0,12.84,12.81,47.59359,-54.27349
2023-12-24 13:04:00+00:00,246.0,11.47,237.0,12.89,12.81,47.59359,-54.27349
2023-12-24 13:14:00+00:00,246.0,11.73,253.0,12.45,13.37,47.59359,-54.27349
2023-12-24 13:24:00+00:00,251.0,11.27,245.0,12.18,13.37,47.59359,-54.27349
2023-12-24 13:34:00+00:00,249.0,10.4,249.0,11.61,13.37,47.59359,-54.27349
2023-12-24 13:44:00+00:00,243.0,10.5,225.0,11.73,13.37,47.59359,-54.27349
2023-12-24 13:54:00+00:00,242.0,10.48,244.0,11.79,13.37,47.59359,-54.27349
2023-12-24 14:04:00+00:00,243.0,10.08,242.0,11.43,13.37,47.59359,-54.27349
2023-12-24 14:14:00+00:00,243.0,10.25,238.0,11.39,13.29,47.59359,-54.27349
2023-12-24 14:24:00+00:00,251.0,11.09,249.0,12.22,13.29,47.59359,-54.27349
2023-12-24 14:34:00+00:00,245.0,11.61,257.0,16.45,13.29,47.59359,-54.27349
2023-12-24 14:44:00+00:00,250.0,11.85,257.0,15.46,13.29,47.59359,-54.27349
2023-12-24 14:54:00+00:00,249.0,11.31,252.0,12.55,13.29,47.59359,-54.27349
2023-12-24 15:04:00+00:00,251.0,12.78,246.0,17.98,13.29,47.59359,-54.27349
2023-12-24 15:14:00+00:00,245.0,10.4,245.0,11.8,13.13,47.59359,-54.27349
2023-12-24 15:24:00+00:00,245.0,10.83,250.0,12.4,13.13,47.59359,-54.27349
2023-12-24 15:34:00+00:00,247.0,10.85,254.0,12.17,13.13,47.59359,-54.27349
2023-12-24 15:44:00+00:00,248.0,11.73,253.0,13.78,13.13,47.59359,-54.27349
2023-12-24 15:54:00+00:00,247.0,11.6,244.0,13.11,13.13,47.59359,-54.27349
2023-12-24 16:04:00+00:00,242.0,10.08,240.0,12.05,13.13,47.59359,-54.27349
2023-12-24 16:14:00+00:00,240.0,10.32,239.0,11.33,13.05,47.59359,-54.27349
2023-12-24 16:24:00+00:00,242.0,10.72,241.0,11.89,13.05,47.59359,-54.27349
2023-12-24 16:34:00+00:00,246.0,10.41,254.0,11.9,13.05,47.59359,-54.27349
2023-12-24 16:44:00+00:00,248.0,9.21,243.0,11.43,13.05,47.59359,-54.27349
2023-12-24 16:54:00+00:00,247.0,11.24,241.0,12.78,13.05,47.59359,-54.27349
2023-12-24 17:04:00+00:00,236.0,11.59,233.0,13.34,13.05,47.59359,-54.27349
2023-12-24 17:14:00+00:00,248.0,11.26,251.0,12.71,12.97,47.59359,-54.27349
2023-12-24 17:24:00+00:00,248.0,9.74,249.0,11.65,12.97,47.59359,-54.27349
2023-12-24 17:34:00+00:00,245.0,9.52,251.0,11.4,12.97,47.59359,-54.27349
2023-12-24 17:44:00+00:00,238.0,9.62,239.0,10.95,12.97,47.59359,-54.27349
2023-12-24 17:54:00+00:00,237.0,10.76,217.0,12.39,12.97,47.59359,-54.27349
2023-12-24 18:04:00+00:00,238.0,10.23,234.0,12.17,12.97,47.59359,-54.27349
2023-12-24 18:14:01+00:00,241.0,10.63,241.0,13.23,12.65,47.59359,-54.27349
2023-12-24 18:24:01+00:00,245.0,9.77,246.0,11.29,12.65,47.59359,-54.27349
2023-12-24 18:34:01+00:00,244.0,10.87,252.0,12.54,12.65,47.59359,-54.27349
2023-12-24 18:44:01+00:00,243.0,9.81,247.0,11.56,12.65,47.59359,-54.27349
2023-12-24 18:54:01+00:00,247.0,9.94,248.0,11.53,12.65,47.59359,-54.27349
2023-12-24 19:04:01+00:00,245.0,10.27,246.0,12.14,12.65,47.59359,-54.27349
2023-12-24 19:14:00+00:00,246.0,8.76,247.0,10.14,12.49,47.59359,-54.27349
2023-12-24 19:24:00+00:00,242.0,8.12,237.0,9.89,12.49,47.59359,-54.27349
2023-12-24 19:34:00+00:00,246.0,9.36,239.0,10.74,12.49,47.59359,-54.27349
2023-12-24 19:44:00+00:00,253.0,9.42,252.0,10.78,12.49,47.59359,-54.27349
2023-12-24 19:54:00+00:00,247.0,9.72,250.0,11.6,12.49,47.59359,-54.27349
2023-12-24 20:04:00+00:00,252.0,9.02,260.0,10.13,12.49,47.59359,-54.27349
2023-12-24 20:14:00+00:00,259.0,8.12,251.0,10.08,12.41,47.59359,-54.27349
2023-12-24 20:24:00+00:00,264.0,10.33,268.0,12.31,12.41,47.59359,-54.27349
2023-12-24 20:34:00+00:00,263.0,9.94,263.0,11.36,12.41,47.59359,-54.27349
2023-12-24 20:44:00+00:00,249.0,9.22,243.0,10.57,12.41,47.59359,-54.27349
2023-12-24 20:54:00+00:00,263.0,9.73,263.0,11.12,12.41,47.59359,-54.27349
2023-12-24 21:04:00+00:00,269.0,9.53,273.0,11.06,12.41,47.59359,-54.27349
2023-12-24 21:14:00+00:00,263.0,9.05,264.0,11.84,12.41,47.59359,-54.27349
2023-12-24 21:24:00+00:00,264.0,8.89,266.0,10.2,12.41,47.59359,-54.27349
2023-12-24 21:34:00+00:00,267.0,8.04,267.0,8.99,12.41,47.59359,-54.27349
2023-12-24 21:44:00+00:00,281.0,7.85,278.0,9.15,12.41,47.59359,-54.27349
2023-12-24 21:54:00+00:00,273.0,8.39,277.0,10.18,12.41,47.59359,-54.27349
2023-12-24 22:04:00+00:00,281.0,8.94,286.0,9.68,12.41,47.59359,-54.27349
2023-12-24 22:14:00+00:00,277.0,7.71,281.0,9.03,12.41,47.59359,-54.27349
2023-12-24 22:24:00+00:00,271.0,8.44,273.0,10.2,12.41,47.59359,-54.27349
2023-12-24 22:34:00+00:00,277.0,7.89,284.0,8.9,12.41,47.59359,-54.27349
2023-12-24 22:44:00+00:00,273.0,7.97,272.0,10.25,12.41,47.59359,-54.27349
2023-12-24 22:54:00+00:00,283.0,8.03,282.0,10.42,12.41,47.59359,-54.27349
2023-12-24 23:04:00+00:00,269.0,7.2,271.0,8.6,12.41,47.59359,-54.27349
2023-12-24 23:14:00+00:00,283.0,5.92,286.0,8.61,12.33,47.59359,-54.27349
2023-12-24 23:24:00+00:00,269.0,7.13,271.0,7.83,12.33,47.59359,-54.27349
2023-12-24 23:34:00+00:00,283.0,6.73,285.0,8.7,12.33,47.59359,-54.27349
2023-12-24 23:44:00+00:00,290.0,7.79,286.0,9.83,12.33,47.59359,-54.27349
2023-12-24 23:54:00+00:00,301.0,6.95,288.0,9.79,12.33,47.59359,-54.27349
